Regional Weather Roundup
Issued by NWS

Home | Current Version | Previous Version | Text Only | Print | Product List | Glossary Off
Versions: 1 2 3 4 5 6 7 8 9 10 11 12 13 14 15 16 17 18 19 20 21 22 23 24 25 26 27 28 29 30 31 32 33 34 35 36 37 38 39 40 41 42 43 44 45 46 47 48

000
ASUS45 KBOU 240707
RWRCO

WEATHER ROUNDUP FOR COLORADO
NATIONAL WEATHER SERVICE DENVER/BOULDER CO
1200 AM MST SAT JAN 24 2015

NOTE: "FAIR" INDICATES FEW OR NO CLOUDS BELOW 12000 FEET WITH NO
SIGNIFICANT WEATHER AND/OR OBSTRUCTIONS TO VISIBILITY.

COZ001>005-013-030-031-240800-
...NORTHWEST COLORADO...

CITY           SKY/WX    TMP DP  RH WIND       PRES   REMARKS
CRAIG          PTCLDY     6   1  80 CALM      30.41F
HAYDEN         PTCLDY    14   3  62 E9        30.38F WCI   2
MEEKER         PTCLDY    11   3  70 E6        30.40F WCI   1
MOUNT WERNER   NOT AVBL
STEAMBOAT SPGS PTCLDY    12   5  72 CALM      30.39F
WALDEN         CLEAR     12   5  73 E9        30.34F WCI   0
$$

COZ006>008-011-240800-
...WEST CENTRAL VALLEYS...

CITY           SKY/WX    TMP DP  RH WIND       PRES   REMARKS
GRAND JUNCTION CLEAR     25  15  66 E6        30.39S WCI  18
MONTROSE       PTCLDY    20  10  65 SE8       30.43R WCI  10
EAGLE          PTCLDY    12   9  85 CALM      30.47R
RIFLE          CLEAR     20  13  74 CALM      30.43R
DELTA          PTCLDY    22  13  67 CALM      30.43R
NUCLA          PTCLDY    25  12  58 E5        30.40R WCI  19
$$

COZ017>023-064>068-240800-
...SOUTHWEST COLORADO...

CITY           SKY/WX    TMP DP  RH WIND       PRES   REMARKS
DURANGO        CLEAR     20  14  77 CALM      30.31S
CORTEZ         CLEAR     19  14  81 E3        30.33R
PAGOSA SPRINGS CLEAR     15  13  90 CALM      30.31S
TELLURIDE      NOT AVBL
WOLF CREEK PAS NOT AVBL
$$

COZ009-010-012-014-032>034-037-058>063-240800-
...CENTRAL COLORADO...

CITY           SKY/WX    TMP DP  RH WIND       PRES   REMARKS
ASPEN          CLEAR     10   1  67 S6        30.37R WCI   0
BUENA VISTA    PTCLDY    25  10  52 NW8       30.32R WCI  16
COPPER MTN     PTCLDY    18   7  62 SW6       30.33S WCI   9
BERTHOUD PASS  CLOUDY     9   3  78 N14G23    30.31R HAZE    WCI  -8
COTTONWOOD PAS PTCLDY    28  10  47 NW5       30.31R WCI  23
GUNNISON       PTCLDY    -2  -6  84 CALM      30.44S
KREMMLING      PTCLDY     3  -4  72 CALM      30.44R
LEADVILLE      PTCLDY     9   2  73 NE9       30.33R WCI  -4
MONARCH PASS   PTCLDY    16   7  67 MISG      30.42R
SALIDA         PTCLDY    24  16  72 CALM      30.40R
SUNLIGHT       CLEAR     19   7  58 CALM      30.37S
WILKERSON PASS PTCLDY    19   9  63 NW6       30.31S WCI  11
$$

COZ069>075-240800-
...SAN LUIS VALLEY/SANGRE DE CRISTO MOUNTAINS...

CITY           SKY/WX    TMP DP  RH WIND       PRES   REMARKS
ALAMOSA        MOCLDY     7   2  80 W5        30.33R WCI  -2
LA VETA PASS   NOT AVBL
SAGUACHE       MOCLDY     9   1  72 CALM      30.33S
$$

COZ035-036-038>040-240800-
...NORTHERN COLORADO FRONT RANGE...

CITY           SKY/WX    TMP DP  RH WIND       PRES   REMARKS
DENVER INTL AP PTCLDY    33  22  63 SW14      30.22F WCI  23
DMNS CITY PARK   N/A     32  20  60 S6        30.23F WCI  27
AURORA         PTCLDY    29  23  76 S9        30.23F WCI  21
FRONT RANGE AP NOT AVBL
ERIE MUNI ARPT PTCLDY    27  20  77 S5        30.22F WCI  21
BOULDER MUN AP PTCLDY    32  19  59 S7        30.21F WCI  26
CENTENNIAL     PTCLDY    28  20  71 SW7       30.23F WCI  21
BROOMFIELD     PTCLDY    32  19  59 SW7       30.23F WCI  26
FORT COLLINS   CLEAR     30  19  64 S6        30.22F WCI  24
LONGMONT       CLEAR     26  20  80 SW3       30.24F
$$

COZ041-046-047-076>085-087-088-240800-
...PIKES PEAK/PALMER DIVIDE AND SOUTHERN FOOTHILLS...

CITY           SKY/WX    TMP DP  RH WIND       PRES   REMARKS
COLO. SPRINGS  PTCLDY    28  19  69 N7        30.26F WCI  21
A. F. ACADEMY  PTCLDY    23  15  72 NW5       30.25F WCI  17
ELLICOTT       PTCLDY   N/A N/A N/A CALM      30.25F
FALCON         PTCLDY    20  14  78 W5        30.26F WCI  13
FORT CARSON    PTCLDY    28  17  65 N7        30.24F WCI  21
LIMON          PTCLDY    28  22  78 W10       30.23F WCI  19
MONUMENT HILL  MOCLDY    23  18  80 SW8       30.24F WCI  14
TRINIDAD       PTCLDY    27  19  72 W13       30.29F WCI  16
$$

COZ042>045-048>051-090-091-240800-
...NORTHEAST COLORADO...

CITY           SKY/WX    TMP DP  RH WIND       PRES   REMARKS
GREELEY ARPT   CLEAR     30  19  64 W5        30.20F WCI  25
AKRON          CLEAR     28  21  75 W10       30.18F WCI  19
BURLINGTON     CLEAR     32  26  78 NW10      30.20F WCI  24
WRAY           CLEAR     32  26  80 W8        30.17F WCI  25
STERLING       CLEAR     36  28  75 NW15      30.17F
HOLYOKE        CLEAR     34  28  80 W13       30.16F WCI  25
FORT MORGAN    CLEAR     28  23  79 W8        30.21F WCI  20
$$

COZ086-089-092>099-240800-
...SOUTHEAST COLORADO...

CITY           SKY/WX    TMP DP  RH WIND       PRES   REMARKS
PUEBLO         PTCLDY    26  22  84 W8        30.27F WCI  18
LA JUNTA       MOCLDY    35  26  69 W12       30.26S WCI  27
LAMAR          CLOUDY    35  28  75 W5        30.22F WCI  31
SPRINGFIELD      N/A     32  25  75 NW15      30.23S WCI  22
$$



USA.gov is the U.S. government's official web portal to all federal, state and local government web resources and services.